Regional Weather Roundup
Issued by NWS

Home | Current Version | Previous Version | Graphics & Text | Print | Product List | Glossary On
Versions: 1 2 3 4 5 6 7 8 9 10 11 12 13 14 15 16 17 18 19 20 21 22 23 24 25 26 27 28 29 30 31 32 33 34 35 36 37 38 39 40 41 42 43 44 45 46 47 48 49 50
000
ASUS43 KLSX 242057
RWRMO

WEATHER SUMMARY FOR MISSOURI
NATIONAL WEATHER SERVICE SPRINGFIELD MO
400 PM CDT TUE APR 24 2018

NOTE: "FAIR" INDICATES FEW OR NO CLOUDS BELOW 12,000 FEET WITH NO
       SIGNIFICANT WEATHER AND/OR OBSTRUCTIONS TO VISIBILITY.
       CURRENT SKY AND/OR WEATHER CONDITIONS ARE NOT AVAILABLE FOR
       CHILLICOTHE AND FARMINGTON.

MOZ001>031-035>038-043-044-053-054-242200-
...NORTHERN AND WESTERN MISSOURI...

CITY           SKY/WX    TMP DP  RH WIND       PRES   REMARKS
KANSAS CTY INT MOSUNNY   75  35  23 N13G22    30.06F
LEE`S SUMMIT   MOSUNNY   75  34  22 N16G22    30.05F
ST JOSEPH      MOSUNNY   77  34  21 VRB3      30.06F
CHILLICOTHE      N/A     76  34  21 N8        30.05S

$$
MOZ066>068-077>081-088>096-101>105-242200-
...SOUTHWEST MISSOURI...

CITY           SKY/WX    TMP DP  RH WIND       PRES   REMARKS
SPRINGFIELD    SUNNY     74  42  31 N14       30.02F
JOPLIN         SUNNY     74  41  30 N12       30.05F
BRANSON        MOSUNNY   73  39  29 NW13G18   30.03F

$$
MOZ032>034-039>042-045>050-055>058-069>072-242200-
...CENTRAL MISSOURI...

CITY           SKY/WX    TMP DP  RH WIND       PRES   REMARKS
COLUMBIA       NOT AVBL
JEFFERSON CITY CLOUDY    72  46  39 CALM      30.00F
ROLLA          MOSUNNY   70  49  47 N12       30.02F
SEDALIA        SUNNY     77  39  25 N12G29    30.04F
WARRENSBURG    PTSUNNY   75  32  20 N13       30.04F

$$
MOZ051-052-059>065-242200-
...EAST CENTRAL MISSOURI...

CITY           SKY/WX    TMP DP  RH WIND       PRES   REMARKS
ST LOUIS INTL  PTSUNNY   68  51  54 N13       29.98F

$$
MOZ072>076-082>087-097>100-106>115-242200-
...SOUTH CENTRAL AND SOUTHEAST MISSOURI...

CITY           SKY/WX    TMP DP  RH WIND       PRES   REMARKS
CAPE GIRARDEAU CLOUDY    61  54  77 N13       29.97F
POPLAR BLUFF   CLOUDY    65  56  72 NE9       29.98F
WEST PLAINS    MOSUNNY   72  49  44 N12G22    30.01F

$$




USA.gov is the U.S. government's official web portal to all federal, state and local government web resources and services.